User: anonymous   Login
Location: Unspecified
(30.8073°N, 0.0000°E)
Time: 15:36:07
(UTC+00:00)
Language:

N. Korean satellite - Orbit

View from above orbital plane
View from above orbital plane
View from above satellite
View from above satellite

Ground track
Ground track

The orbit data is extracted from the following two-line orbital elements,

1 39026U 12072A   19202.47637207  .00000794  00000-0  31295-4 0  9996
2 39026  97.2109 204.5623 0037620 347.5713  12.4595 15.27874391366604
Epoch (UTC): 21 July 2019 11:25:58
Eccentricity: 0.0037620
inclination: 97.2109°
perigee height: 456 km
apogee height: 508 km
right ascension of ascending node: 204.5623°
argument of perigee: 347.5713°
revolutions per day: 15.27874391
mean anomaly at epoch: 12.4595°
orbit number at epoch: 36660

The dashed part of the orbit path shows where the satellite is in the earth's shadow,  

DLR